RH
42 41 40 40 38 36 36 33 27 22 20 19 19 20 22 24 23 21 19 18 17 16 15 15 15 16 16 17 17 17 17 17 16 15 14 13 12 12 10 10 10 9 9 9 9 9 9 9 9 10 9 10
41 40 42 40 38 35 32 30 25 23 21 20 19 21 23 24 23 22 20 19 19 18 17 17 18 18 18 18 18 17 16 15 14 12 11 10 9 8 7 7 6 6 6 5 5 5 5 5 5 6 5 6
43 42 43 35 34 31 27 25 23 23 22 21 21 22 24 23 23 22 22 21 20 19 19 19 19 19 19 18 17 16 14 12 11 9 8 7 5 5 4 4 3 3 3 2 2 2 2 2 2 2 2 2
40 42 42 34 30 27 24 24 22 22 22 23 23 23 23 21 22 22 23 23 21 21 20 21 20 20 18 17 16 13 12 9 7 6 4 3 2 2 2 1 2 1 1 1 1 1 1 1 1 1 1 1
38 42 37 31 28 26 25 24 24 25 25 24 23 23 23 22 22 23 24 23 22 22 22 21 20 19 17 15 13 10 8 6 4 3 2 2 1 1 1 1 1 1 1 1 1 1 2 1 2 2 2 2
40 38 33 31 28 26 25 25 26 27 26 26 25 25 24 24 23 24 24 23 22 23 22 21 20 18 15 12 9 7 5 3 2 1 1 1 1 1 1 2 1 2 2 2 2 2 2 2 2 3 3 3
45 37 32 33 31 29 27 27 28 28 28 28 27 27 27 26 25 25 24 23 23 23 23 21 19 16 12 8 5 4 2 2 1 1 1 1 1 2 2 2 2 2 3 3 3 3 3 3 3 3 3 3
45 37 32 32 30 29 28 28 29 28 29 29 29 29 29 27 26 26 24 23 24 24 23 20 17 13 8 5 3 2 1 1 1 1 1 2 2 2 2 2 3 3 3 3 3 4 4 4 4 4 4 4
39 34 32 30 28 28 28 28 28 28 28 29 31 31 31 29 28 27 25 24 24 24 22 19 15 9 5 2 2 2 1 1 1 2 2 2 2 2 3 3 3 3 3 4 3 4 4 4 5 5 5 5
37 34 32 30 28 28 28 27 27 27 28 29 31 33 32 30 29 27 25 25 25 24 21 17 12 6 3 1 2 1 1 2 2 2 2 2 3 3 3 3 3 3 3 4 4 5 5 6 6 6 7 6
34 30 29 29 29 29 28 28 28 28 29 30 31 33 34 32 30 27 26 26 25 24 21 15 8 4 2 1 2 1 2 2 2 2 2 3 3 3 3 3 3 3 4 4 5 6 6 7 7 7 7 7
29 28 29 31 31 30 29 29 29 30 31 31 32 33 35 33 31 29 28 27 26 23 19 11 5 2 2 1 2 2 2 2 2 2 2 3 3 3 3 3 4 4 5 6 6 7 7 7 7 7 6 6
28 28 28 29 31 31 31 31 31 31 31 32 34 35 35 34 31 30 29 28 26 22 16 8 3 2 2 2 2 2 2 2 2 2 3 3 3 3 3 4 5 5 6 7 7 7 6 7 6 6 6 6
37 30 26 27 29 31 32 33 31 31 32 33 35 36 35 34 31 30 29 28 25 20 12 6 2 2 2 2 2 2 2 2 2 3 3 3 3 3 4 5 6 6 7 7 7 6 6 6 6 6 6 7
47 38 31 29 29 31 33 33 32 32 32 33 34 35 34 33 31 30 29 27 25 18 9 4 2 2 2 2 2 2 2 2 2 3 3 3 3 4 5 6 7 7 7 6 6 6 5 5 5 6 6 7
42 38 34 32 30 31 33 34 34 34 33 33 35 34 32 32 31 30 29 27 23 16 7 2 2 2 2 2 2 2 2 2 3 3 3 3 3 4 6 6 7 7 6 6 5 5 5 5 5 6 6 6
31 31 30 29 29 31 32 34 35 34 33 33 34 34 33 31 31 31 29 27 22 14 5 2 2 2 3 2 2 2 3 3 3 3 3 4 4 5 7 7 7 7 6 5 5 5 4 5 5 5 5 5
28 28 28 29 30 31 32 33 34 35 35 35 34 33 33 31 31 31 29 26 21 12 4 2 3 3 3 2 3 3 3 3 3 3 4 4 5 6 7 7 7 6 5 5 4 4 4 4 5 5 5 4
28 28 29 30 31 32 33 34 35 38 38 37 35 33 33 32 31 31 29 26 20 11 3 2 3 3 3 3 3 3 3 3 3 4 5 5 7 7 8 7 7 6 5 4 4 4 4 4 4 4 4 4
28 29 30 30 32 32 33 35 37 39 39 37 36 35 34 33 33 32 29 25 18 9 3 2 3 3 3 3 3 3 3 4 4 5 5 6 7 7 8 7 6 5 4 4 4 4 4 4 4 4 4 4
29 30 31 31 32 33 33 33 35 38 38 36 36 36 35 34 34 32 29 24 16 8 2 2 3 3 3 3 4 4 4 5 5 6 6 7 8 8 8 7 6 5 4 4 4 4 4 4 4 4 4 5
30 31 31 32 32 33 33 33 35 37 37 37 37 38 37 35 34 33 30 24 14 6 2 2 3 3 4 4 4 4 5 5 5 6 7 8 8 8 8 7 6 5 4 4 4 4 4 4 4 4 4 5
31 31 30 30 31 30 29 29 31 32 32 34 36 38 38 36 35 33 30 23 13 5 3 3 3 4 4 4 5 5 5 6 6 7 8 8 9 9 8 8 7 5 4 4 4 4 4 4 4 5 5 5
26 26 25 24 22 19 16 17 21 23 26 30 33 35 37 36 36 34 31 23 11 4 3 3 3 4 4 5 5 5 6 6 7 8 8 9 9 9 8 8 7 6 5 4 4 4 4 4 4 5 5 6
15 16 16 14 10 6 6 8 13 16 19 23 26 30 34 35 35 34 31 23 11 4 4 3 3 4 4 5 5 6 6 7 7 8 8 9 9 9 9 8 8 7 6 5 5 5 4 4 5 5 5 6
8 8 7 6 4 4 5 6 10 12 15 20 24 28 31 33 35 34 30 25 13 6 5 4 4 5 5 5 5 6 6 7 8 8 9 9 9 9 9 9 8 7 6 6 5 5 5 5 5 6 6 7
4 4 4 5 5 5 5 6 10 14 17 22 27 29 30 35 37 36 33 28 19 9 6 5 5 5 5 5 5 6 7 7 8 8 9 10 10 10 10 9 8 8 7 6 7 6 5 6 6 7 8 8
3 5 6 7 8 8 7 6 8 12 13 16 21 24 27 33 36 37 34 31 25 15 9 7 6 5 5 5 6 6 7 7 8 9 9 10 10 10 10 10 9 9 8 7 7 7 6 6 7 7 8 10
5 7 9 11 12 11 8 6 4 6 6 8 11 16 21 27 33 35 34 32 28 20 13 10 7 6 5 5 6 6 6 7 8 8 9 10 11 11 11 11 10 10 9 8 8 7 6 7 7 8 9 10
8 9 12 14 14 13 11 8 5 4 5 6 9 15 22 28 32 34 33 32 29 25 19 15 11 8 6 6 6 6 6 7 7 8 9 10 11 12 12 12 11 10 10 9 8 8 7 7 8 9 10 11
9 10 11 12 12 12 12 11 9 8 8 10 15 21 28 32 35 36 36 35 32 30 27 24 19 14 9 7 6 6 6 6 7 8 9 10 11 12 13 12 11 11 11 10 9 9 8 8 9 9 11 11
Wind_Speed
20 19 18 18 19 18 18 19 18 18 18 19 20 19 18 18 17 17 17 16 16 16 16 16 17 17 16 16 16 16 15 15 15 15 15 16 15 16 16 16 16 16 16 16 17 17 17 18 18 18 18 18
18 17 17 18 19 18 17 17 18 17 18 19 20 20 19 19 18 17 17 17 17 17 17 17 17 17 17 16 16 16 16 16 16 16 16 16 16 16 16 16 16 16 16 16 17 17 17 17 17 17 18 18
19 17 17 19 20 19 17 17 17 16 17 18 19 20 20 20 19 18 18 18 17 17 17 17 16 17 17 17 17 17 17 17 17 17 17 16 16 16 16 16 16 16 16 16 15 15 15 15 15 15 15 15
19 18 19 20 21 20 19 18 17 16 16 18 20 20 22 22 20 19 18 18 17 17 17 17 17 17 18 18 18 17 17 17 17 17 17 16 16 16 15 15 14 14 13 13 12 12 11 11 11 11 11 11
18 18 19 19 20 20 19 18 17 17 18 19 21 22 23 23 22 20 19 18 17 17 18 18 18 17 18 19 18 18 18 17 17 17 16 15 15 14 13 12 12 11 10 10 9 9 8 8 8 8 8 8
19 19 19 18 19 20 20 19 18 19 20 21 22 23 24 25 23 21 20 19 18 18 18 19 18 18 18 18 19 18 18 18 17 16 15 14 13 12 11 11 10 10 10 9 9 9 8 8 8 8 8 8
20 20 19 18 19 20 20 20 20 21 22 22 23 24 25 26 25 22 21 20 19 19 19 19 19 19 18 18 19 18 17 17 16 15 14 13 13 12 12 11 11 10 10 10 10 10 9 9 9 9 10 10
20 20 20 20 20 21 20 21 22 23 23 24 24 25 26 27 26 24 22 21 20 20 20 20 19 19 18 18 18 18 17 16 16 15 15 14 14 13 13 12 12 12 11 11 11 11 11 11 11 11 12 12
21 21 21 22 22 22 22 22 23 24 24 25 25 26 27 28 27 25 24 23 22 21 21 21 20 19 19 18 18 18 17 17 17 16 16 15 15 14 14 14 13 13 13 13 13 13 13 13 13 13 13 14
23 23 23 23 23 23 23 23 24 25 25 25 26 26 28 29 28 26 25 24 23 23 22 22 21 20 20 19 19 19 19 19 18 18 17 17 16 16 15 15 15 15 15 15 15 14 14 14 14 15 15 15
24 25 24 24 24 24 24 24 25 25 25 26 27 27 28 29 28 27 26 25 24 24 23 23 22 22 21 20 20 20 21 20 20 19 19 18 17 17 17 17 16 16 16 16 16 16 16 16 16 16 16 16
25 26 26 26 26 25 25 25 26 26 26 27 28 28 29 29 29 28 27 26 25 25 24 24 24 23 22 22 22 22 22 22 21 20 20 19 19 18 18 18 17 17 17 17 17 17 17 17 16 16 16 16
25 27 27 27 27 26 26 26 27 27 28 28 28 29 29 30 29 29 28 27 26 25 25 25 24 24 23 23 23 23 23 23 22 22 21 20 20 19 19 19 18 18 18 18 18 18 17 17 17 16 16 16
28 29 30 29 29 28 28 28 28 29 28 28 28 29 30 30 30 30 29 28 27 27 27 26 25 25 24 24 25 24 24 24 23 22 22 21 21 20 20 20 19 19 19 19 19 18 17 17 17 16 16 15
32 32 32 32 31 31 30 29 30 30 29 29 29 30 31 31 31 31 30 29 29 28 28 28 27 26 26 26 26 25 25 24 24 23 23 22 22 22 22 21 21 21 20 20 19 18 18 17 17 16 16 16
34 34 35 35 34 33 32 32 32 32 30 29 30 31 32 32 32 32 31 30 30 29 29 29 28 27 26 26 26 26 25 25 25 24 24 23 23 23 23 22 22 22 21 21 20 19 18 18 18 17 17 16
36 36 36 36 36 35 35 34 34 34 32 31 31 32 32 32 33 32 32 32 31 30 30 30 28 27 27 27 26 26 26 26 25 25 25 24 24 24 24 23 23 23 22 21 20 20 19 19 18 18 18 17
38 37 37 37 37 37 37 37 37 36 34 33 33 33 33 33 34 33 33 33 32 32 31 30 29 28 27 27 27 26 27 27 26 26 26 25 25 24 24 24 23 23 23 22 21 21 20 20 19 19 19 18
38 38 37 37 37 38 38 38 38 37 36 34 34 34 35 35 35 35 34 34 34 33 32 31 29 28 28 28 28 28 28 28 27 27 26 26 25 25 24 24 24 24 23 22 22 22 21 21 20 20 20 20
39 38 37 37 38 39 39 39 38 37 37 36 36 36 36 36 36 36 35 35 34 33 32 31 30 29 30 29 29 29 28 28 28 27 26 26 25 25 25 25 25 24 24 23 23 22 22 21 22 22 22 22
40 39 38 38 38 39 39 39 39 38 38 38 38 38 38 37 37 36 35 35 34 33 32 31 31 31 31 30 30 30 29 28 28 27 26 26 26 26 26 26 26 26 25 24 24 23 23 23 23 23 23 23
40 40 39 39 39 39 40 40 40 39 40 40 39 39 39 38 38 36 35 35 34 33 33 32 32 31 31 31 31 30 29 29 28 28 27 27 27 27 27 27 27 27 26 25 24 24 24 24 24 24 24 24
41 42 42 41 41 42 42 42 42 42 43 42 41 40 40 40 39 37 36 35 34 33 33 33 33 33 33 33 32 31 30 30 29 28 28 28 28 29 29 29 29 28 27 25 25 25 26 26 26 26 25 25
43 43 44 44 43 43 43 43 43 43 44 44 43 41 41 41 39 37 36 35 33 33 34 34 35 35 35 35 34 32 31 30 29 29 30 30 31 31 30 30 29 28 27 27 27 27 27 27 27 27 27 27
42 43 43 43 42 41 42 43 43 43 43 44 43 41 42 41 39 37 36 35 34 35 35 36 37 37 37 36 35 33 32 32 32 32 32 32 32 31 31 31 30 30 30 29 29 29 29 29 29 29 29 29
41 42 42 41 40 40 41 41 42 42 42 42 42 41 42 41 39 38 37 36 36 37 38 38 39 38 38 37 36 35 34 34 34 33 33 32 32 32 32 33 33 33 32 31 30 31 31 31 31 31 31 30
41 41 40 40 39 39 40 40 40 41 40 41 42 42 42 41 40 39 39 38 38 39 39 40 39 38 37 37 37 36 36 35 35 34 33 33 33 34 34 35 35 34 34 33 32 33 34 33 33 33 32 30
39 39 39 39 39 39 40 41 41 41 42 42 43 43 43 43 42 41 41 40 40 40 40 39 38 37 37 37 38 38 38 37 36 35 34 34 35 36 36 36 36 36 36 36 34 35 36 35 35 35 32 30
38 38 39 39 40 40 41 42 42 42 42 42 43 43 43 42 42 42 41 41 41 40 39 38 38 37 38 38 39 40 39 39 38 37 37 36 37 37 38 38 38 38 38 38 36 37 39 38 37 35 32 31
36 37 39 40 40 40 41 42 42 41 41 40 41 41 41 41 41 41 41 41 41 40 39 39 39 39 39 40 41 41 41 41 40 40 39 38 39 39 39 40 41 41 40 39 39 40 40 39 38 36 34 34
34 36 38 39 40 40 40 41 41 40 40 40 40 40 41 42 41 41 41 41 41 41 41 41 41 41 41 42 42 43 44 44 43 42 41 41 41 41 41 43 44 43 42 42 42 41 41 41 40 39 38 37
Wind_Direction
232 230 231 238 242 243 246 243 237 231 226 225 228 231 234 237 240 243 247 250 252 252 252 253 255 255 256 255 255 256 258 259 258 257 257 256 256 256 256 255 255 254 254 254 254 254 254 255 256 257 257 258
228 233 239 243 244 243 241 240 237 232 229 228 229 232 238 242 244 247 250 254 256 256 256 254 254 255 255 255 256 257 258 259 258 258 258 257 257 256 255 254 253 252 252 252 253 253 253 254 254 255 256 256
228 240 245 242 244 244 239 237 237 235 235 235 236 238 243 246 246 247 250 254 257 257 256 255 254 255 257 257 258 259 259 259 259 259 259 258 256 255 254 253 252 250 249 249 249 250 251 252 252 253 254 255
232 241 241 238 240 242 240 239 239 239 241 242 244 246 249 251 251 250 251 253 254 254 254 253 253 255 258 260 260 260 259 258 258 258 257 256 254 253 251 248 246 243 241 240 240 241 242 243 245 247 248 250
236 240 238 239 241 243 244 244 244 243 244 246 248 251 253 255 255 254 254 255 253 252 252 252 253 254 257 260 260 259 260 259 258 257 256 253 249 245 241 235 231 227 223 222 221 223 226 229 232 237 241 245
238 241 241 242 242 244 247 247 246 244 244 246 249 252 255 257 258 258 258 257 254 252 252 253 254 256 257 259 260 259 258 258 257 255 250 244 236 229 223 217 213 210 209 208 210 212 217 223 228 235 240 245
241 244 244 244 245 246 247 248 247 245 245 246 249 252 255 257 260 260 260 258 255 253 253 254 255 256 256 256 258 257 254 252 249 243 236 227 219 214 210 208 207 207 209 210 213 216 220 225 230 237 243 248
244 245 246 248 249 250 251 250 250 249 247 247 248 251 253 257 260 260 259 257 255 254 255 256 257 256 255 253 254 253 248 241 235 228 221 216 211 209 209 209 212 214 217 220 222 224 226 230 234 238 243 247
246 245 245 247 250 252 253 253 253 253 251 249 248 249 252 256 258 259 258 256 254 254 255 257 257 255 253 250 249 246 239 230 223 218 214 213 212 213 214 216 220 223 226 228 230 232 233 234 236 239 243 246
248 247 247 248 250 253 254 254 254 254 253 250 248 249 252 255 257 258 258 256 254 254 255 255 255 252 250 247 242 235 229 223 218 216 215 216 218 220 222 225 227 230 232 235 236 237 239 239 241 242 244 247
249 250 250 251 252 254 255 255 255 255 253 250 247 248 250 253 255 256 255 253 252 253 254 253 251 248 245 241 234 227 223 221 219 219 220 222 225 228 230 233 234 236 238 240 242 243 245 246 247 248 248 250
251 252 252 252 252 253 255 256 256 254 252 249 247 246 248 251 253 253 252 251 250 251 251 250 247 244 241 236 228 223 222 222 223 224 226 228 231 234 236 238 240 241 243 244 246 248 250 251 251 252 252 252
259 259 258 257 256 256 255 256 256 255 253 250 247 246 247 249 251 251 251 250 250 250 250 247 244 241 237 231 226 224 224 225 227 228 230 233 236 238 240 242 244 245 247 249 249 250 251 252 253 253 253 254
264 263 263 261 260 258 256 256 256 255 254 251 248 246 246 247 249 250 250 250 250 250 248 244 240 238 234 229 227 226 227 228 230 232 235 237 239 241 243 245 247 249 250 251 252 252 252 252 253 253 254 255
263 263 263 262 261 259 257 256 256 255 254 252 248 246 245 246 248 249 249 249 249 249 245 240 237 235 232 229 228 229 229 231 233 235 238 240 241 243 244 246 248 250 251 252 252 252 252 253 253 254 256 257
258 258 259 259 259 259 258 257 257 256 254 251 248 245 244 245 247 248 249 249 249 248 244 239 236 233 231 231 230 231 232 234 236 238 240 241 243 243 245 247 249 250 251 252 251 251 252 252 254 255 256 257
251 251 253 254 255 256 256 255 256 256 255 252 248 245 244 244 246 247 249 250 250 247 243 238 235 233 232 233 233 233 235 236 238 240 241 242 244 245 246 248 249 250 250 250 249 250 250 251 253 254 255 257
247 248 249 251 251 252 252 253 253 253 252 251 248 247 246 245 246 247 248 250 249 246 241 236 235 234 234 234 234 235 236 237 239 240 241 242 243 245 248 249 249 249 248 248 247 248 249 250 252 253 255 256
249 249 250 250 250 250 250 250 250 250 250 250 248 247 246 246 246 247 248 249 249 246 240 236 235 235 235 235 236 236 237 238 240 240 241 242 244 246 248 249 249 248 247 246 246 247 247 249 250 252 254 256
252 252 251 251 250 250 250 250 250 250 250 249 248 247 245 245 245 246 247 249 249 244 238 235 235 236 237 237 237 237 238 239 240 241 242 243 245 247 248 248 248 247 246 245 245 246 247 248 249 251 253 255
255 255 254 253 252 252 252 252 252 251 250 249 248 247 245 244 244 246 248 249 249 243 237 235 236 237 238 239 239 239 240 240 241 242 243 244 246 247 248 248 247 246 244 244 245 246 247 248 249 251 252 254
255 256 255 254 254 254 254 253 252 251 251 250 249 247 245 245 246 248 250 250 248 242 237 236 238 239 240 241 241 241 241 242 242 243 244 245 246 247 248 247 246 245 245 245 245 245 246 248 249 251 252 255
254 254 254 254 254 254 255 255 254 253 253 252 250 248 246 246 247 248 249 250 247 241 238 237 239 240 241 241 241 241 242 243 243 244 245 245 246 247 247 247 247 246 246 246 245 245 246 248 250 251 253 254
254 254 254 255 255 257 258 258 257 256 256 254 252 250 248 248 248 248 249 248 245 240 237 237 238 239 240 241 241 241 242 243 243 244 244 244 245 247 248 249 249 248 247 246 245 246 247 249 250 251 253 254
257 257 258 259 260 262 262 261 259 258 257 257 256 253 251 250 249 249 248 246 243 239 236 236 236 237 239 240 241 241 241 242 242 243 244 245 247 249 250 250 250 249 247 246 247 248 248 249 250 252 253 254
260 260 261 262 262 261 260 259 259 259 259 258 258 255 253 251 249 248 247 244 241 238 235 235 236 237 238 240 241 241 241 242 243 245 246 247 249 250 250 250 249 249 248 248 248 248 249 250 251 253 254 255
261 261 261 261 260 259 257 256 255 255 256 254 253 252 250 248 246 245 243 241 240 238 237 236 237 238 239 241 242 243 243 245 246 247 248 248 249 249 249 249 249 249 249 248 248 249 250 251 252 253 254 256
263 262 260 260 259 258 256 254 253 251 250 248 247 247 246 245 244 243 243 241 241 241 240 240 240 241 241 242 243 244 245 246 247 248 248 248 248 248 248 249 249 249 249 248 248 249 251 252 253 255 256 257
264 262 260 260 260 259 257 255 253 251 250 249 247 247 247 246 245 244 245 244 244 245 245 245 244 243 242 242 243 244 245 245 246 247 247 246 246 247 247 248 248 248 249 249 248 250 252 252 254 256 257 257
264 263 262 262 261 260 259 257 256 256 257 256 254 253 250 249 248 247 246 247 247 247 247 247 246 244 243 242 242 243 244 244 244 245 245 245 245 245 246 247 247 248 248 249 249 250 252 254 255 256 255 255
264 263 263 263 263 262 260 258 257 257 258 257 256 254 251 249 248 247 246 246 246 246 246 246 246 245 244 243 242 242 243 244 244 243 243 243 244 244 244 245 247 247 248 249 250 250 252 254 255 255 255 255